Location: Newark
(35.6799°N, 139.7636°E)
Time: 20:30:54
(UTC+00:00)

Explorer 7 - Pass Details

Date: 10 December 2019
Orbit: 485 x 679 km, 50.3° (Epoch: 21 January)

Event Time Altitude Azimuth Distance (km) Brightness Sun altitude
Rises 13:33:57 0° 305° (NW) 2,989 - -71.8°
Reaches altitude 10° 13:36:24 10° 301° (WNW) 2,052 - -72.2°
Maximum altitude 13:40:59 52° 225° (SW) 777 - -72.9°
Drops below altitude 10° 13:45:19 10° 149° (SSE) 1,931 - -73.5°
Sets 13:47:33 0° 144° (SE) 2,796 - -73.8°
